This is the latest recevied weather packets stored in our database for station/object N7ZEF. If no packets are shown the sender has not sent any weather packets the latest 10 day(s).
| Time | Temp. | Humidity | Pressure | Rain* | Wind** | Luminosity | Snow |
|---|---|---|---|---|---|---|---|
| 1777875727 | 7.22° C | 41% | 1012.4 hPa | 0 mm | - | - | - |
| 1777875126 | 7.78° C | 41% | 1012.6 hPa | 0 mm | - | - | - |
| 1777874525 | 7.78° C | 40% | 1012.4 hPa | 0 mm | - | - | - |
| 1777873923 | 8.33° C | 40% | 1012.6 hPa | 0 mm | - | - | - |
| 1777873322 | 8.33° C | 39% | 1012.6 hPa | 0 mm | - | - | - |
| 1777872720 | 8.89° C | 38% | 1012.6 hPa | 0 mm | - | - | - |
| 1777872119 | 8.89° C | 37% | 1012.7 hPa | 0 mm | - | - | - |
| 1777871518 | 8.89° C | 38% | 1012.7 hPa | 0 mm | - | - | - |
| 1777870916 | 10° C | 36% | 1012.8 hPa | 0 mm | - | - | - |
| 1777870315 | 10° C | 35% | 1012.8 hPa | 0 mm | - | - | - |
| 1777869713 | 10.56° C | 34% | 1013 hPa | 0 mm | - | - | - |
| 1777869112 | 11.11° C | 33% | 1013 hPa | 0 mm | - | - | - |
| 1777868511 | 10.56° C | 31% | 1012.8 hPa | 0 mm | - | - | - |
| 1777867909 | 10.56° C | 31% | 1012.8 hPa | 0 mm | - | - | - |
| 1777867308 | 11.11° C | 31% | 1013.1 hPa | 0 mm | - | - | - |
| 1777866706 | 11.11° C | 29% | 1012.8 hPa | 0 mm | - | - | - |
| 1777866105 | 11.67° C | 28% | 1012.8 hPa | 0 mm | - | - | - |
| 1777865504 | 11.67° C | 28% | 1012.8 hPa | 0 mm | - | - | - |
| 1777864902 | 11.67° C | 27% | 1012.7 hPa | 0 mm | - | - | - |
| 1777864301 | 12.22° C | 28% | 1012.8 hPa | 0 mm | - | - | - |
| 1777863699 | 12.78° C | 26% | 1012.8 hPa | 0 mm | - | - | - |
| 1777863098 | 13.33° C | 26% | 1012.7 hPa | 0 mm | - | - | - |
| 1777862497 | 13.89° C | 24% | 1012.6 hPa | 0 mm | - | - | - |
| 1777861895 | 14.44° C | 23% | 1012.4 hPa | 0 mm | - | - | - |
| 1777861294 | 15° C | 22% | 1012.3 hPa | 0 mm | - | - | - |
* Rain latest hour (hover to see other rain measurements)
** Current wind speed in m/s (hover to see current wind gust speed)